{"data":{"norad_id":66102,"intl_designator":"2025-236S","name":"STARLINK-35599","alt_names":[],"object_type":"PAYLOAD","status":"ACTIVE","operator":null,"country":"US","launch_date":"2025-10-19","launch_site_code":"AFWTR","launch_vehicle":null,"mission":null,"orbit_class":"UNKNOWN","rcs_meters":null,"size_class":null,"mass_kg":null,"dimensions":null,"purposes":["comms"],"wikipedia_slug":null,"has_3d_model":false,"image_url":null,"decayed_at":null,"tle_current":{"epoch":"2026-09-20T06:04:51.158496Z","epoch_age_seconds":121724,"freshness":"FRESH","line1":"1 66102U 25236S   26263.25336989  .00010606  00000+0  32450-3 0  9996","line2":"2 66102  53.1592 276.5647 0001316  89.2943 270.8211 15.34407223 52723","mean_motion":15.34407223,"eccentricity":0.0001316,"inclination_deg":53.1592,"raan_deg":276.5647,"arg_perigee_deg":89.2943,"mean_anomaly_deg":270.8211,"bstar":0.0003245,"rev_number":5272,"period_min":93.847316306592,"perigee_km":461.78152026275,"apogee_km":463.58202376354,"semimajor_km":6840.8187720131,"source":"CELESTRAK","updated_at":"2026-09-21T09:00:35.803400Z"}}}